TimeAEST,TemperatureF,Dew PointF,Humidity,Sea Level PressureIn,VisibilityMPH,Wind Direction,Wind SpeedMPH,Gust SpeedMPH,PrecipitationIn,Events,Conditions,WindDirDegrees,DateUTC
12:00 AM,73,68,81,29.87,,North,10.4,,,,,350,2013-03-16 14:00:00
12:00 AM,73.4,68.0,83,29.86,6.2,North,10.4,-,N/A,,Unknown,350,2013-03-16 14:00:00
12:30 AM,73.4,68.0,83,29.86,6.2,NNW,10.4,-,N/A,,Unknown,340,2013-03-16 14:30:00
1:00 AM,73.4,68.0,83,29.83,6.2,NNW,9.2,-,N/A,,Unknown,340,2013-03-16 15:00:00
1:30 AM,71.6,68.0,88,29.83,6.2,North,10.4,-,N/A,,Unknown,350,2013-03-16 15:30:00
2:00 AM,71.6,68.0,88,29.80,6.2,NW,6.9,-,N/A,,Scattered Clouds,320,2013-03-16 16:00:00
2:30 AM,71.6,66.2,83,29.80,6.2,NNW,5.8,-,N/A,,Unknown,330,2013-03-16 16:30:00
3:00 AM,72,67,81,29.81,,NNW,8.1,,,,,330,2013-03-16 17:00:00
3:00 AM,71.6,68.0,88,29.80,6.2,NNW,8.1,-,N/A,,Unknown,330,2013-03-16 17:00:00
3:30 AM,71.6,68.0,88,29.80,6.2,North,12.7,-,N/A,,Unknown,350,2013-03-16 17:30:00
4:00 AM,71.6,68.0,88,29.80,6.2,NNW,12.7,-,N/A,,Unknown,340,2013-03-16 18:00:00
4:30 AM,71.6,68.0,88,29.80,6.2,NNW,10.4,-,N/A,,Unknown,340,2013-03-16 18:30:00
5:00 AM,71.6,68.0,88,29.80,6.2,NNW,8.1,-,N/A,,Unknown,340,2013-03-16 19:00:00
5:30 AM,71.6,68.0,88,29.80,6.2,North,9.2,-,N/A,,Unknown,350,2013-03-16 19:30:00
6:00 AM,71,68,86,29.81,,North,8.1,,,,,350,2013-03-16 20:00:00
6:00 AM,71.6,68.0,88,29.80,6.2,North,8.1,-,N/A,,Unknown,350,2013-03-16 20:00:00
6:30 AM,73.4,68.0,83,29.80,6.2,North,9.2,-,N/A,,Unknown,350,2013-03-16 20:30:00
7:00 AM,75.2,68.0,78,29.80,6.2,NNW,8.1,-,N/A,,Unknown,340,2013-03-16 21:00:00
7:30 AM,77.0,68.0,74,29.83,6.2,NNW,10.4,-,N/A,,Unknown,330,2013-03-16 21:30:00
8:00 AM,78.8,69.8,74,29.80,6.2,NNW,13.8,-,N/A,,Unknown,340,2013-03-16 22:00:00
8:30 AM,80.6,71.6,74,29.80,6.2,North,13.8,-,N/A,,Unknown,350,2013-03-16 22:30:00
9:00 AM,82,69,57,29.81,,North,12.7,,,,,0,2013-03-16 23:00:00
9:00 AM,82.4,69.8,66,29.80,6.2,North,12.7,-,N/A,,Unknown,360,2013-03-16 23:00:00
9:30 AM,82.4,69.8,66,29.80,6.2,North,16.1,-,N/A,,Unknown,360,2013-03-16 23:30:00
10:00 AM,86.0,69.8,58,29.80,6.2,North,12.7,-,N/A,,Unknown,360,2013-03-17 00:00:00
10:30 AM,89.6,66.2,46,29.80,6.2,NW,10.4,-,N/A,,Unknown,320,2013-03-17 00:30:00
11:00 AM,89.6,64.4,43,29.77,6.2,WNW,12.7,-,N/A,,Unknown,300,2013-03-17 01:00:00
11:30 AM,91.4,66.2,43,29.77,6.2,WNW,12.7,-,N/A,,Unknown,300,2013-03-17 01:30:00
12:00 PM,91,64,30,29.77,,WNW,15.0,,,,,300,2013-03-17 02:00:00
12:00 PM,91.4,64.4,41,29.77,6.2,WNW,15.0,-,N/A,,Unknown,300,2013-03-17 02:00:00
12:30 PM,91.4,62.6,38,29.74,6.2,NW,9.2,-,N/A,,Unknown,310,2013-03-17 02:30:00
1:00 PM,93.2,62.6,36,29.74,6.2,WNW,13.8,-,N/A,,Unknown,300,2013-03-17 03:00:00
1:30 PM,93.2,66.2,41,29.74,6.2,WNW,8.1,-,N/A,,Scattered Clouds,290,2013-03-17 03:30:00
2:00 PM,86.0,69.8,58,29.74,6.2,North,12.7,-,N/A,,Overcast,10,2013-03-17 04:00:00
2:11 PM,84.2,69.8,62,29.74,6.2,SSE,19.6,35.7,N/A,,Overcast,150,2013-03-17 04:11:00
2:32 PM,80.6,69.8,70,29.77,6.2,SSE,21.9,35.7,N/A,,Mostly Cloudy,160,2013-03-17 04:32:00
3:00 PM,80,69,61,29.80,,SSE,19.6,,,,,150,2013-03-17 05:00:00
3:04 PM,78.8,69.8,74,29.77,6.2,SSE,19.6,31.1,N/A,,Mostly Cloudy,150,2013-03-17 05:04:00
3:30 PM,78.8,68.0,69,29.80,6.2,SSE,21.9,34.5,N/A,,Mostly Cloudy,150,2013-03-17 05:30:00
4:00 PM,78.8,68.0,69,29.83,6.2,SSE,19.6,32.2,N/A,,Overcast,150,2013-03-17 06:00:00
4:30 PM,78.8,66.2,65,29.83,6.2,SSE,20.7,33.4,N/A,,Mostly Cloudy,160,2013-03-17 06:30:00
5:00 PM,77.0,66.2,69,29.83,6.2,South,17.3,-,N/A,,Mostly Cloudy,170,2013-03-17 07:00:00
5:33 PM,77.0,64.4,65,29.86,6.2,South,19.6,31.1,N/A,,Overcast,170,2013-03-17 07:33:00
6:00 PM,76,65,60,29.88,,South,17.3,,,,Overcast,170,2013-03-17 08:00:00
6:00 PM,77.0,64.4,65,29.86,6.2,South,17.3,-,N/A,,Overcast,170,2013-03-17 08:00:00
6:30 PM,75.2,64.4,69,29.89,6.2,South,16.1,-,N/A,,Overcast,170,2013-03-17 08:30:00
7:00 PM,75.2,64.4,69,29.92,6.2,South,16.1,-,N/A,,Overcast,180,2013-03-17 09:00:00
8:00 PM,75.2,62.6,65,29.95,6.2,South,18.4,-,N/A,,Overcast,170,2013-03-17 10:00:00
9:00 PM,74,60,53,29.98,,South,20.7,,,,Overcast,170,2013-03-17 11:00:00
9:00 PM,73.4,60.8,65,29.98,6.2,South,20.7,-,N/A,,Overcast,170,2013-03-17 11:00:00
9:30 PM,73.4,59.0,61,29.98,6.2,South,17.3,29.9,N/A,,Overcast,170,2013-03-17 11:30:00
10:00 PM,73.4,60.8,65,29.98,6.2,SSE,19.6,31.1,N/A,,Overcast,160,2013-03-17 12:00:00
10:30 PM,73.4,59.0,61,29.98,6.2,South,17.3,-,N/A,,Overcast,180,2013-03-17 12:30:00
11:00 PM,71.6,57.2,60,29.98,6.2,South,15.0,-,N/A,,Overcast,180,2013-03-17 13:00:00
11:30 PM,71.6,57.2,60,29.98,6.2,South,16.1,-,N/A,,Overcast,180,2013-03-17 13:30:00